Location: Skalnate Pleso
(49.1889°N, 20.2450°E)
Time: 08:38:24
(UTC+01:00)

CZ-4C R/B - Pass Details

Date: 19 November 2019
Orbit: 650 x 1352 km, 63.4° (Epoch: 07 December)

Event Time Altitude Azimuth Distance (km) Brightness Sun altitude
Exits shadow 03:52:33 25° 352° (N) 1,811 3.8 -29.4°
Drops below altitude 10° 03:57:40 10° 41° (NE) 2,891 5.5 -28.6°
Sets 04:01:06 0° 54° (NE) 3,978 6.5 -28.0°
